Location: Beuerbach
(48.1459°N, 10.9174°E)
Time: 01:32:11
(UTC+00:00)

AQUA - Pass Details

Date: 23 May 2024
Orbit: 693 x 697 km, 98.3° (Epoch: 19 June)

Event Time Altitude Azimuth Distance (km) Brightness Sun altitude
Rises 01:57:50 0° 13° (NNE) 3,086 8.4 -12.0°
Reaches altitude 10° 02:00:06 10° 13° (NNE) 2,164 7.4 -11.7°
Maximum altitude 02:04:51 86° 286° (WNW) 703 3.8 -11.2°
Enters shadow 02:09:14 12° 198° (SSW) 2,016 5.6 -10.7°
